Tiempo cada hora Dakor

Hoy, 28 Noviembre, Sábado

Tiempo Temperatura Precipitaciones Viento Presión Humedad
00:00 +21°C° 0 mm 4 mps 759 mmHg 44%
01:00 +20°C° 0 mm 4 mps 758 mmHg 44%
02:00 +19°C° 0 mm 4 mps 758 mmHg 45%
03:00 +19°C° 0 mm 4 mps 758 mmHg 46%
04:00 +18°C° 0 mm 4 mps 758 mmHg 47%
05:00 +17°C° 0 mm 5 mps 758 mmHg 49%
06:00 +19°C° 0 mm 5 mps 759 mmHg 48%
07:00 +19°C° 0 mm 5 mps 759 mmHg 47%
08:00 +20°C° 0 mm 5 mps 760 mmHg 46%
09:00 +23°C° 0 mm 5 mps 759 mmHg 41%
10:00 +26°C° 0 mm 5 mps 759 mmHg 36%
11:00 +29°C° 0 mm 6 mps 759 mmHg 31%
12:00 +30°C° 0 mm 6 mps 758 mmHg 29%
13:00 +32°C° 0 mm 5 mps 757 mmHg 27%
14:00 +33°C° 0 mm 5 mps 756 mmHg 25%
15:00 +30°C° 0 mm 5 mps 756 mmHg 27%
16:00 +29°C° 0 mm 4 mps 756 mmHg 29%
17:00 +27°C° 0 mm 4 mps 755 mmHg 31%
18:00 +26°C° 0 mm 4 mps 756 mmHg 31%
19:00 +25°C° 0 mm 4 mps 756 mmHg 30%
20:00 +23°C° 0 mm 4 mps 757 mmHg 29%
21:00 +22°C° 0 mm 4 mps 757 mmHg 31%
22:00 +21°C° 0 mm 4 mps 757 mmHg 32%
23:00 +21°C° 0 mm 4 mps 757 mmHg 33%

Mañana, 29 Noviembre, Domingo

Tiempo Temperatura Precipitaciones Viento Presión Humedad
00:00 +20°C° 0 mm 4 mps 757 mmHg 34%
01:00 +20°C° 0 mm 4 mps 756 mmHg 35%
02:00 +20°C° 0 mm 4 mps 756 mmHg 36%
03:00 +20°C° 0 mm 4 mps 756 mmHg 36%
04:00 +20°C° 0 mm 4 mps 756 mmHg 36%
05:00 +20°C° 0 mm 4 mps 756 mmHg 36%
06:00 +20°C° 0 mm 5 mps 756 mmHg 36%
07:00 +21°C° 0 mm 5 mps 757 mmHg 37%
08:00 +22°C° 0 mm 5 mps 758 mmHg 38%
09:00 +25°C° 0 mm 5 mps 758 mmHg 36%
10:00 +28°C° 0 mm 5 mps 757 mmHg 34%
11:00 +32°C° 0 mm 4 mps 757 mmHg 32%
12:00 +33°C° 0 mm 4 mps 756 mmHg 32%
13:00 +34°C° 0 mm 3 mps 755 mmHg 32%
14:00 +35°C° 0 mm 2 mps 755 mmHg 32%
15:00 +34°C° 0 mm 2 mps 755 mmHg 35%
16:00 +32°C° 0 mm 2 mps 754 mmHg 38%
17:00 +31°C° 0 mm 2 mps 754 mmHg 41%
18:00 +29°C° 0 mm 2 mps 755 mmHg 41%
19:00 +28°C° 0 mm 3 mps 755 mmHg 41%
20:00 +27°C° 0 mm 3 mps 756 mmHg 42%
21:00 +27°C° 0 mm 3 mps 756 mmHg 41%
22:00 +26°C° 0 mm 3 mps 756 mmHg 41%
23:00 +26°C° 0 mm 3 mps 756 mmHg 41%

Pasado mañana, 30 Noviembre, Lunes

Tiempo Temperatura Precipitaciones Viento Presión Humedad
00:00 +26°C° 0 mm 3 mps 755 mmHg 40%
01:00 +25°C° 0 mm 3 mps 755 mmHg 39%
02:00 +25°C° 0 mm 3 mps 755 mmHg 38%
03:00 +25°C° 0 mm 3 mps 755 mmHg 40%
04:00 +23°C° 0 mm 4 mps 755 mmHg 41%
05:00 +23°C° 0 mm 4 mps 755 mmHg 43%
06:00 +25°C° 0 mm 4 mps 755 mmHg 44%
07:00 +25°C° 0 mm 4 mps 756 mmHg 45%
08:00 +25°C° 0 mm 4 mps 756 mmHg 46%
09:00 +28°C° 0 mm 3 mps 756 mmHg 43%
10:00 +30°C° 0 mm 3 mps 756 mmHg 40%
11:00 +34°C° 0 mm 3 mps 756 mmHg 37%
12:00 +34°C° 0 mm 2 mps 755 mmHg 36%
13:00 +35°C° 0 mm 2 mps 755 mmHg 35%
14:00 +35°C° 0 mm 1 mps 754 mmHg 35%
15:00 +35°C° 0 mm 2 mps 754 mmHg 37%
16:00 +34°C° 0 mm 2 mps 754 mmHg 39%
17:00 +32°C° 0 mm 2 mps 754 mmHg 41%
18:00 +32°C° 0 mm 2 mps 754 mmHg 41%
19:00 +31°C° 0 mm 2 mps 755 mmHg 41%
20:00 +30°C° 0 mm 3 mps 756 mmHg 41%
21:00 +29°C° 0 mm 3 mps 756 mmHg 41%
22:00 +28°C° 0 mm 3 mps 756 mmHg 42%
23:00 +27°C° 0 mm 3 mps 756 mmHg 42%

1 Diciembre, Martes

Tiempo Temperatura Precipitaciones Viento Presión Humedad
00:00 +27°C° 0 mm 3 mps 755 mmHg 41%
01:00 +26°C° 0 mm 3 mps 755 mmHg 40%
02:00 +26°C° 0 mm 3 mps 755 mmHg 39%
03:00 +25°C° 0 mm 4 mps 755 mmHg 37%
04:00 +25°C° 0 mm 4 mps 755 mmHg 35%
05:00 +23°C° 0 mm 4 mps 755 mmHg 33%
06:00 +25°C° 0 mm 4 mps 755 mmHg 34%
07:00 +25°C° 0 mm 4 mps 756 mmHg 35%
08:00 +26°C° 0 mm 4 mps 757 mmHg 36%
09:00 +28°C° 0 mm 4 mps 757 mmHg 34%
10:00 +32°C° 0 mm 4 mps 756 mmHg 32%
11:00 +34°C° 0 mm 3 mps 756 mmHg 30%
12:00 +35°C° 0 mm 3 mps 756 mmHg 30%
13:00 +36°C° 0 mm 3 mps 755 mmHg 29%
14:00 +36°C° 0 mm 2 mps 754 mmHg 29%
15:00 +35°C° 0 mm 2 mps 754 mmHg 31%
16:00 +34°C° 0 mm 2 mps 754 mmHg 33%
17:00 +33°C° 0 mm 3 mps 754 mmHg 35%
18:00 +31°C° 0 mm 3 mps 755 mmHg 34%
19:00 +30°C° 0 mm 3 mps 755 mmHg 32%
20:00 +28°C° 0 mm 2 mps 756 mmHg 30%
21:00 +28°C° 0 mm 2 mps 756 mmHg 30%
22:00 +27°C° 0 mm 2 mps 756 mmHg 29%
23:00 +26°C° 0 mm 2 mps 756 mmHg 28%

2 Diciembre, Miércoles

Tiempo Temperatura Precipitaciones Viento Presión Humedad
00:00 +25°C° 0 mm 3 mps 756 mmHg 28%
01:00 +24°C° 0 mm 3 mps 755 mmHg 27%
02:00 +24°C° 0 mm 3 mps 755 mmHg 27%
03:00 +22°C° 0 mm 3 mps 755 mmHg 28%
04:00 +22°C° 0 mm 3 mps 755 mmHg 29%
05:00 +22°C° 0 mm 3 mps 755 mmHg 30%
06:00 +22°C° 0 mm 3 mps 755 mmHg 31%
07:00 +24°C° 0 mm 3 mps 756 mmHg 31%
08:00 +24°C° 0 mm 3 mps 756 mmHg 32%
09:00 +27°C° 0 mm 3 mps 756 mmHg 28%
10:00 +30°C° 0 mm 3 mps 756 mmHg 24%
11:00 +33°C° 0 mm 3 mps 756 mmHg 21%
12:00 +34°C° 0 mm 2 mps 755 mmHg 20%
13:00 +35°C° 0 mm 2 mps 754 mmHg 19%
14:00 +36°C° 0 mm 2 mps 753 mmHg 18%
15:00 +35°C° 0 mm 2 mps 753 mmHg 21%
16:00 +32°C° 0 mm 2 mps 753 mmHg 24%
17:00 +31°C° 0 mm 2 mps 753 mmHg 27%
18:00 +29°C° 0 mm 1 mps 753 mmHg 27%
19:00 +28°C° 0 mm 1 mps 754 mmHg 27%
20:00 +27°C° 0 mm 1 mps 754 mmHg 27%
21:00 +26°C° 0 mm 1 mps 754 mmHg 27%
22:00 +25°C° 0 mm 1 mps 754 mmHg 28%
23:00 +25°C° 0 mm 2 mps 754 mmHg 28%

3 Diciembre, Jueves

Tiempo Temperatura Precipitaciones Viento Presión Humedad
00:00 +24°C° 0 mm 2 mps 754 mmHg 29%
01:00 +23°C° 0 mm 2 mps 754 mmHg 29%
02:00 +23°C° 0 mm 2 mps 753 mmHg 29%
03:00 +21°C° 0 mm 2 mps 753 mmHg 29%
04:00 +21°C° 0 mm 2 mps 753 mmHg 29%
05:00 +21°C° 0 mm 2 mps 753 mmHg 29%
06:00 +21°C° 0 mm 2 mps 754 mmHg 30%
07:00 +23°C° 0 mm 2 mps 754 mmHg 31%
08:00 +24°C° 0 mm 2 mps 755 mmHg 32%
09:00 +27°C° 0 mm 2 mps 755 mmHg 28%
10:00 +29°C° 0 mm 2 mps 755 mmHg 24%
11:00 +32°C° 0 mm 1 mps 755 mmHg 20%
12:00 +33°C° 0 mm 1 mps 754 mmHg 19%
13:00 +34°C° 0 mm 1 mps 753 mmHg 18%
14:00 +33°C° 0 mm 0 mps 753 mmHg 16%
15:00 +33°C° 0 mm 1 mps 753 mmHg 19%
16:00 +32°C° 0 mm 1 mps 753 mmHg 22%
17:00 +30°C° 0 mm 1 mps 752 mmHg 25%
18:00 +29°C° 0 mm 1 mps 753 mmHg 26%
19:00 +28°C° 0 mm 1 mps 753 mmHg 26%
20:00 +27°C° 0 mm 1 mps 754 mmHg 27%
21:00 +26°C° 0 mm 1 mps 754 mmHg 28%
22:00 +25°C° 0 mm 1 mps 754 mmHg 29%
23:00 +25°C° 0 mm 1 mps 754 mmHg 31%
Mostrar más

Necesitamos Su Consentimiento

Meteoprog y nuestros Proveedores de Servicios pueden almacenar y acceder a sus datos personales como cookies, identificadores de dispositivo u otras tecnologías similares de su dispositivo y procesar dichos datos para personalizar contenido y anuncios, además de ofrecer funciones de redes sociales y analizar el tráfico.

  • Almacenar y/o acceder a información en su dispositivo

    Se puede almacenar o acceder a cookies, identificadores de dispositivo u otra información de su dispositivo para los fines anteriormente indicados.

  • Anuncios y contenido personalizados, medición de anuncios y contenido, percepciones del público, y desarrollo de productos

    Los anuncios y el contenido pueden personalizarse en base a su perfil. Se pueden añadir más datos para personalizar mejor los anuncios y contenidos. Se puede medir el rendimiento de los anuncios y contenidos. Se puede obtener la percepción sobre el público que ha visto los anuncios y contenidos. Dichos datos pueden usarse para desarrollar o mejorar la experiencia del usuario, sistemas y software.

Al hacer clic en ‘Estoy De Acuerdo’ usted permitirá el uso de las cookies, identificadores de dispositivo, balizas web u otras tecnologías similares indicadas. Su configuración puede cambiarse desde el navegador de su dispositivo.

Para ciertos fines, los intereses legítimos pueden ser considerados por encima del consentimiento. Puede leer más sobre ello en nuestra Política de Privacidad y Cookies.